sat.trackr.live / text

‹ back to catalog

STARLINK-37064

NORAD 68157 · 2026-049R

PAYLOAD ACTIVE UNKNOWN

§ Identity

Operator
Country
US
Launch date
2026-03-13
Launch site
AFWTR
Launch vehicle
Mass (kg)
RCS (m²)

Purposes: comms

External: N2YO · Heavens-Above · Gunter

§ Orbital elements

Epoch: 2026-09-19T23:25:32.506752Z

Period
93.91 min
Inclination
97.2847°
Eccentricity
0.0001836
Mean motion
15.33455064 rev/d
Perigee alt
464.3 km
Apogee alt
466.8 km
Semi-major
6,843.7 km
B*
5.3861e-4
RAAN
282.9844°
Arg perigee
93.1367°
Mean anomaly
267.0085°
Rev number
2,942

§ Raw data

STARLINK-370641 68157U 26049R   26262.97607068  .00017359  00000+0  53861-3 0  99992 68157  97.2847 282.9844 0001836  93.1367 267.0085 15.33455064 29421

JSON: /api/v1/satellites/68157 · /tle

For live sub-satellite position, see the globe view (requires WebGL).

§ Visibility from observer

Set your observer location to see the next 7 days of passes ≥ 10°. The values pass through the URL so the page stays shareable.

No JS? Fill the form by hand. The geolocation button needs JavaScript.